COSMOS 2584 (704K)

Last updated on Sun Nov 16 2025 00:04:25 GMT+0000 (Coordinated Universal Time)

1 63130U 25042A 25319.15874090 -.00000014 00000+0 00000+0 0 9994 2 63130 64.9614 80.0852 0007318 209.8122 150.1327 2.13103125 5485
UTC large
Height (km)
Speed (km/s)
/
Latitude / Longitude
Inclination (degrees)
Orbital Period (minutes)
Azimuth
Elevation
Range (km)
Doppler Factor

Next 0 passes for location: London (51.5072 / 0.1276)

Sorry there are no passes over London.